{"data":{"norad_id":62175,"intl_designator":"2024-225N","name":"STARLINK-32534","alt_names":[],"object_type":"PAYLOAD","status":"ACTIVE","operator":null,"country":"US","launch_date":"2024-11-30","launch_site_code":"AFWTR","launch_vehicle":null,"mission":null,"orbit_class":"UNKNOWN","rcs_meters":null,"size_class":null,"mass_kg":null,"dimensions":null,"purposes":["comms"],"wikipedia_slug":null,"has_3d_model":false,"image_url":null,"decayed_at":null,"tle_current":{"epoch":"2026-09-21T22:00:03.000096Z","epoch_age_seconds":55244,"freshness":"FRESH","line1":"1 62175U 24225N   26264.91670139  .00006129  00000+0  45382-3 0  9994","line2":"2 62175  69.9997  29.8326 0003601 259.5335 135.2146 15.03624269  5728","mean_motion":15.03624269,"eccentricity":0.0003601,"inclination_deg":69.9997,"raan_deg":29.8326,"arg_perigee_deg":259.5335,"mean_anomaly_deg":135.2146,"bstar":0.00045382,"rev_number":572,"period_min":95.768605873706,"perigee_km":553.23497194117,"apogee_km":558.22874429279,"semimajor_km":6933.868858117,"source":"CELESTRAK","updated_at":"2026-09-22T09:00:49.536605Z"}}}